Theta_e
321 320 320 320 320 320 320 319 319 319 319 319 319 319 319 320 321 319 308 316 321 329 334 325 324 329 333 336 339 341 327 319 319 319 323 332 328 334 337 333 333 335 332 338 343
321 321 321 320 321 321 320 321 321 319 319 318 318 319 320 321 318 311 321 319 329 334 326 321 321 327 332 331 333 334 330 322 327 325 324 330 330 330 331 331 332 334 339 341 342
321 321 321 321 321 321 321 320 319 319 318 318 318 319 321 323 315 315 334 328 331 334 321 322 324 330 329 330 331 331 327 330 330 327 325 328 329 332 330 326 330 332 335 337 339
321 320 320 320 321 320 320 320 319 318 318 318 318 320 322 321 306 319 340 334 338 324 318 319 322 328 327 325 330 327 332 331 330 330 329 329 333 329 330 331 334 337 336 336 337
319 319 319 318 317 318 318 318 318 317 317 318 318 320 321 313 313 327 343 338 324 317 316 318 321 328 325 323 325 326 331 333 334 333 329 331 330 328 329 334 338 337 336 336 338
317 317 317 316 317 317 316 316 315 316 317 317 319 321 318 310 326 333 328 324 317 316 314 321 324 327 322 324 326 330 331 332 333 333 331 326 327 329 332 335 336 336 336 337 339
316 317 317 317 317 317 316 315 315 316 317 318 320 322 316 316 328 326 324 318 316 315 313 318 323 324 321 327 333 331 327 331 330 331 330 328 320 322 332 336 333 335 336 338 340
316 316 316 316 316 316 315 314 316 318 317 318 321 322 312 321 328 323 322 317 316 315 314 317 320 322 324 336 331 327 326 319 327 330 331 329 316 325 330 333 332 333 335 337 339
316 316 315 315 315 315 314 314 319 319 319 321 323 319 314 321 318 323 324 318 316 315 314 314 318 320 328 324 320 322 315 316 321 329 328 328 321 325 331 329 329 333 335 336 338
317 316 315 315 314 314 313 314 322 322 324 324 322 316 317 315 319 322 323 317 313 311 309 312 319 317 319 319 309 311 311 316 318 324 327 324 323 326 328 329 328 333 334 335 337
317 316 315 314 314 312 314 320 319 318 320 314 314 313 315 320 320 319 319 311 311 309 305 311 310 309 314 318 315 315 313 315 320 327 324 323 323 326 329 328 327 331 334 334 336
315 315 314 313 313 313 317 318 316 316 312 316 316 316 319 320 312 316 318 311 306 303 307 307 306 313 315 317 315 313 314 315 320 324 323 321 321 327 329 328 327 330 334 334 335
315 315 313 313 313 315 319 317 320 319 313 314 317 315 316 319 312 313 317 313 307 304 305 304 308 314 312 312 312 313 312 314 314 321 324 321 320 322 326 329 328 333 335 336 335
315 315 313 311 312 321 317 319 320 319 310 309 312 315 317 315 310 317 319 314 309 304 305 306 311 310 311 310 313 309 315 317 315 314 310 321 310 321 321 325 327 330 335 336 336
314 313 311 310 318 316 318 321 322 319 298 310 311 320 316 312 312 312 319 314 306 306 307 305 307 309 308 310 312 311 317 317 315 314 314 315 313 319 320 322 326 331 334 336 336
313 312 311 315 318 317 321 321 319 307 296 306 311 310 310 312 310 313 312 315 313 307 308 307 310 311 311 313 313 317 316 317 317 314 306 312 313 313 318 322 326 331 333 336 335
312 310 311 318 318 323 320 319 307 300 307 305 307 310 309 308 308 309 308 307 306 301 302 305 306 309 311 308 313 314 311 303 302 303 304 316 313 315 321 323 327 328 332 334 337
310 308 313 320 324 320 320 313 299 302 303 309 309 310 307 308 308 307 306 305 308 307 304 300 298 306 311 309 308 311 309 303 296 301 304 315 308 315 322 326 327 330 332 334 336
308 321 322 323 322 322 316 304 304 304 307 306 309 306 306 308 309 307 306 306 308 310 304 302 301 310 313 313 313 309 306 313 305 308 305 309 315 321 321 326 326 328 330 331 334
317 321 321 323 323 320 312 301 306 309 309 308 303 306 303 306 306 306 305 309 308 310 312 307 302 312 316 318 316 314 315 306 307 299 298 305 309 310 318 324 325 326 330 331 334
318 314 321 322 322 316 307 307 308 312 311 307 305 305 306 306 307 305 306 311 312 310 312 311 308 309 316 314 311 313 310 310 309 307 302 299 305 320 321 327 326 326 330 331 333
314 308 321 321 312 315 309 309 306 310 311 309 309 308 307 307 307 307 306 310 312 312 308 311 309 303 307 312 313 317 312 311 303 301 308 302 305 325 326 329 331 326 330 334 333
312 314 322 320 307 309 311 309 311 309 309 307 306 308 311 307 305 307 308 312 313 311 310 311 307 301 303 309 312 309 312 314 312 306 301 301 304 325 327 327 332 331 331 332 335
311 307 315 317 316 312 310 309 308 311 309 308 308 310 309 307 309 307 307 311 312 313 312 314 308 305 299 304 309 306 310 312 310 304 304 304 308 317 324 325 327 331 334 334 333
312 309 313 308 311 311 312 310 308 305 310 310 308 308 307 304 305 306 308 310 311 311 313 312 306 308 309 310 309 308 309 310 309 311 307 310 310 320 323 322 323 326 332 333 333
311 310 320 315 314 313 306 310 308 309 308 307 307 307 308 305 306 305 307 308 307 312 311 311 307 309 306 309 310 306 307 307 311 311 313 314 314 324 325 325 321 323 327 333 335
315 317 314 308 313 312 310 310 309 310 309 309 309 308 307 308 312 312 313 312 313 311 308 308 308 306 300 308 306 303 309 310 311 315 314 309 320 324 321 320 319 319 320 321 325
Wind_Speed
9 8 8 8 9 9 9 9 9 9 9 9 10 10 10 11 14 8 7 3 1 1 6 8 8 7 7 3 2 1 2 5 4 5 6 5 6 5 4 10 7 3 6 21 19
9 9 8 9 9 9 9 10 10 9 9 9 9 9 10 10 8 8 3 1 5 5 11 12 9 9 6 3 3 3 2 5 6 7 4 4 2 5 7 10 9 11 15 20 19
10 10 10 10 10 10 10 10 10 10 10 9 8 9 9 11 7 6 4 7 6 8 6 8 6 9 5 3 3 2 2 6 8 10 7 2 3 3 9 7 10 14 20 20 18
12 12 12 11 11 10 11 10 11 10 11 9 8 9 10 7 2 6 6 10 7 6 8 8 10 10 4 3 3 6 8 4 7 11 2 6 2 4 3 7 3 16 18 18 16
13 13 13 13 12 12 11 11 11 11 11 9 8 8 8 7 8 7 9 12 11 7 8 8 11 6 5 3 3 5 7 7 5 5 7 5 5 3 7 5 13 16 17 16 14
14 14 14 14 14 14 13 13 12 11 10 7 7 9 7 6 5 5 12 11 8 8 7 8 5 3 3 2 3 6 10 10 8 8 9 7 5 4 7 8 13 15 15 15 13
14 15 15 15 15 15 15 15 13 12 8 6 6 6 6 9 4 8 9 6 6 5 7 4 2 9 1 6 11 12 12 10 6 5 6 12 3 2 4 5 12 15 13 12 11
15 15 16 16 17 16 16 16 14 8 6 5 6 6 7 4 4 4 8 7 5 3 2 1 4 2 5 10 6 5 7 7 5 7 8 8 6 13 7 9 12 15 13 12 12
16 16 16 16 17 16 16 17 9 4 4 6 8 6 9 5 6 5 3 4 7 5 3 3 6 4 7 12 9 8 3 3 7 5 5 10 3 16 12 6 11 14 15 13 12
15 17 17 17 16 14 16 13 4 8 6 5 4 7 7 6 5 7 4 7 5 9 8 9 9 11 10 11 9 8 5 3 5 7 8 7 4 13 12 12 13 14 15 13 14
16 17 18 17 15 13 13 6 7 7 8 7 6 3 6 8 7 7 7 8 9 10 9 13 12 15 15 11 6 2 2 1 4 8 8 7 6 12 16 14 13 12 14 17 15
18 18 18 17 15 11 7 4 6 6 2 2 2 4 3 2 7 10 8 5 7 9 6 9 14 13 3 3 5 4 2 4 5 6 7 4 8 10 12 17 14 15 19 17 18
19 16 18 16 15 6 4 5 2 5 6 6 1 1 3 8 4 10 12 4 6 8 12 11 11 7 8 10 10 8 6 3 6 7 9 6 11 12 12 12 11 21 20 20 18
19 17 17 17 7 1 2 2 5 5 6 7 6 6 7 3 6 4 8 3 5 6 8 8 5 11 11 12 11 10 4 2 1 6 4 5 2 12 15 16 14 22 19 18 18
21 18 13 8 7 4 5 6 2 6 2 3 6 5 3 6 7 10 9 6 3 7 9 7 9 12 12 11 9 3 1 5 5 8 9 8 8 8 14 18 20 22 22 21 19
22 18 13 6 5 4 5 2 6 9 4 5 4 5 8 5 5 9 9 10 2 5 9 1 1 7 12 11 9 4 6 5 6 8 11 3 10 7 8 16 16 22 22 21 20
21 19 7 4 2 2 5 5 8 4 3 4 2 3 3 7 7 9 9 10 6 9 9 10 12 9 7 11 10 11 12 9 7 7 6 2 7 9 3 3 11 17 23 20 20
23 8 9 5 2 5 6 8 4 2 1 3 2 5 5 5 5 6 7 8 6 7 4 8 12 14 13 16 10 15 16 10 5 6 6 3 6 9 8 6 9 13 16 21 22
23 5 4 4 4 5 8 9 2 2 2 2 6 5 7 6 4 8 3 2 4 3 7 4 3 7 6 11 10 13 11 13 5 12 7 6 6 9 3 8 2 8 11 18 22
6 4 4 2 6 6 7 2 4 1 2 5 5 4 3 5 7 7 6 4 1 3 5 3 3 7 7 6 9 12 9 10 9 4 6 6 2 9 11 10 5 7 8 13 19
6 5 6 6 5 7 8 4 4 5 3 4 2 4 0 1 4 5 5 7 3 2 4 5 7 8 10 11 9 9 11 10 2 7 4 4 5 7 8 9 10 4 6 12 14
5 7 5 5 8 3 7 4 1 5 5 4 3 4 4 0 4 5 3 4 4 3 4 4 8 7 6 3 3 10 12 12 6 9 3 6 3 6 6 7 10 4 3 3 5
6 3 5 5 8 8 5 6 4 7 9 7 5 4 1 3 4 3 2 4 4 3 6 4 5 7 13 12 7 8 6 12 12 14 13 9 5 6 6 7 10 9 3 5 14
5 5 6 6 4 9 10 10 9 6 6 4 1 4 6 7 4 2 5 4 0 2 3 5 5 9 7 9 4 4 8 8 12 12 12 6 2 6 9 9 12 11 8 2 5
3 1 7 7 11 11 6 3 12 8 8 7 6 10 5 4 5 6 4 6 5 5 2 6 7 5 4 2 4 5 0 1 6 8 9 10 3 9 11 9 9 10 9 3 5
5 5 1 6 4 11 8 12 12 11 10 12 10 10 6 5 3 2 5 4 4 3 1 3 1 7 4 3 3 9 4 4 6 1 0 1 4 7 6 9 10 11 11 1 6
2 2 5 3 8 11 11 15 11 4 9 8 11 8 9 4 0 3 2 2 3 5 2 5 1 6 5 5 4 10 9 5 3 2 5 8 9 2 5 7 9 9 10 10 14
Wind_Direction
347 347 344 338 335 334 334 332 330 333 327 328 328 324 320 325 294 224 240 36 63 116 221 171 196 196 212 190 200 264 156 154 164 140 107 93 124 82 93 141 139 89 150 132 145
344 343 341 336 330 331 331 326 327 330 326 324 321 317 316 326 275 241 88 120 246 225 200 191 188 191 203 171 179 280 135 133 158 140 165 59 37 112 145 138 133 108 107 132 150
345 344 344 339 336 331 328 326 325 324 325 324 319 310 310 301 250 81 49 186 195 230 244 227 205 224 218 213 121 84 63 120 145 146 187 170 135 164 149 164 152 147 141 149 158
352 348 345 342 341 334 328 325 321 320 319 314 311 309 308 256 125 63 46 152 157 228 206 196 199 210 199 166 106 110 74 57 132 161 146 166 330 88 72 27 133 143 146 152 166
355 353 349 345 343 339 333 325 322 314 311 307 306 308 270 206 50 3 139 151 168 183 192 197 200 206 193 119 151 120 103 92 120 134 143 22 40 94 53 85 130 137 149 157 168
353 351 348 345 342 338 331 323 318 311 302 294 295 295 253 102 9 51 136 163 167 185 172 207 213 310 106 137 309 113 101 111 133 114 132 97 18 40 7 126 142 152 159 166 166
346 345 344 342 340 335 330 323 314 303 282 268 276 277 251 68 109 103 155 144 155 208 184 170 248 251 147 120 128 133 124 123 137 143 100 104 336 142 297 244 166 175 171 168 166
344 341 339 338 336 333 328 323 312 280 245 241 256 256 73 136 129 142 134 134 174 157 280 210 265 271 264 102 157 201 185 190 123 175 149 192 182 213 215 264 187 182 179 180 169
342 337 335 333 331 329 325 321 317 183 210 217 234 269 97 133 206 182 217 142 159 163 143 216 244 237 174 199 181 186 218 182 153 202 163 211 162 180 191 214 266 192 183 192 181
337 334 331 328 327 328 319 306 153 184 204 229 260 232 153 76 109 146 155 146 151 157 153 194 213 212 215 217 228 170 204 202 159 172 208 198 154 174 184 195 220 243 196 195 196
336 332 329 327 325 324 303 210 207 175 209 350 4 2 110 93 159 163 157 151 151 189 183 192 209 214 191 226 12 34 337 5 121 165 199 205 206 181 192 201 215 236 233 192 208
338 333 330 326 321 314 265 327 43 1 282 145 291 258 216 278 132 157 187 204 192 177 179 179 224 201 61 179 227 232 164 110 120 157 246 195 205 178 194 208 214 227 241 209 202
337 331 330 323 317 256 299 32 122 322 256 132 165 270 112 209 104 165 203 171 182 175 203 207 204 103 200 195 217 227 270 134 349 181 228 246 224 178 203 189 210 222 229 220 199
335 332 332 320 282 17 190 64 269 270 230 112 160 131 172 247 130 150 217 275 192 187 200 228 110 203 206 210 230 219 196 219 214 256 312 226 292 195 184 196 207 206 218 214 207
333 333 327 320 324 242 56 322 181 227 262 101 109 103 172 260 130 168 200 233 177 165 231 126 185 203 215 220 213 349 217 191 274 271 284 206 260 116 177 202 196 212 210 208 199
331 328 320 204 224 309 307 289 237 231 102 137 144 185 202 170 144 142 195 228 15 178 224 62 300 221 226 225 217 106 202 221 253 271 258 195 256 120 163 228 209 200 210 210 205
323 319 257 293 28 353 288 234 231 282 153 135 104 187 200 136 144 180 182 193 217 210 192 187 203 204 235 219 212 208 224 234 228 219 261 80 255 68 79 258 245 204 202 208 213
324 308 180 276 292 296 236 237 254 86 198 126 247 185 173 172 129 161 178 210 189 268 250 231 173 201 197 233 199 216 236 255 255 282 318 157 228 106 45 351 240 241 208 202 217
314 191 211 158 215 237 251 237 112 170 34 259 182 221 147 157 277 205 209 66 31 289 292 200 139 161 227 219 254 188 236 282 277 287 255 168 139 158 25 14 324 209 213 194 208
301 244 133 86 175 225 249 332 160 261 275 229 262 268 214 144 207 234 194 94 62 343 287 56 209 179 155 199 219 280 225 213 228 279 268 148 152 60 357 359 356 248 216 221 188
244 236 84 164 235 231 239 129 172 158 237 252 215 205 343 218 278 189 145 123 3 93 271 309 266 129 175 209 183 184 221 249 266 292 295 284 5 21 5 355 337 244 225 186 192
290 228 126 197 220 240 211 187 18 182 179 203 271 306 279 197 206 214 207 352 12 321 295 20 292 180 153 93 210 299 284 180 179 273 244 226 137 39 28 13 3 47 195 180 163
306 308 165 242 228 209 148 199 246 214 205 195 214 274 273 248 252 252 170 92 354 324 354 1 269 235 184 171 175 214 225 264 280 127 252 270 95 81 43 19 29 17 9 203 172
277 222 165 212 278 279 192 215 209 207 238 228 204 233 208 216 207 242 222 129 152 357 348 257 265 294 301 344 104 173 226 234 263 259 255 222 359 64 40 26 9 2 354 323 207
232 56 355 188 205 224 227 237 217 194 222 212 190 233 221 232 226 231 231 185 176 134 234 293 278 284 324 287 246 138 68 219 260 342 315 74 55 43 26 8 19 0 337 203 152
303 321 238 294 231 222 179 217 236 232 201 201 237 195 209 248 270 255 252 236 295 158 281 280 258 261 167 134 249 217 205 143 261 55 125 341 105 50 37 45 29 16 5 49 147
21 223 279 169 218 222 210 231 225 226 221 257 216 201 215 235 93 31 347 345 8 295 317 288 289 249 231 170 226 217 187 206 284 166 305 297 68 112 64 53 40 26 21 4 15